Weather History for CWJI - August, 2013

Change the Weather History Date:

Friday, August 23, 2013

  Actual Average Record
Temperature  
Mean Temperature 74 °F -  
Max Temperature 90 °F - - ()
Min Temperature 58 °F - - ()
Cooling Degree Days 9    
Growing Degree Days 24 (Base 50)    
Moisture  
Dew Point 57 °F    
Average Humidity 66    
Maximum Humidity 89    
Minimum Humidity 32    
Precipitation  
Precipitation 0.02 in - - ()
Sea Level Pressure  
Sea Level Pressure 29.79 in    
Wind  
Wind Speed 5 mph ()    
Max Wind Speed 15 mph    
Max Gust Speed 23 mph    
T = Trace of Precipitation, MM = Missing Value Source: Averaged Metar Reports

Daily Weather History Graph

Daily Weather History Graph

Search for Another Location

Airport or City:

Trip Planner

Search our weather history database for the weather conditions in past years. The results will help you decide how hot, cold, wet, or windy it might be!

Date:

Astronomy

Aug. 23, 2013 Rise Set
Actual Time 6:06 AM CST 8:05 PM CST
Civil Twilight 5:31 AM CST 8:39 PM CST
Nautical Twilight 4:49 AM CST 9:22 PM CST
Astronomical Twilight 4:00 AM CST 10:09 PM CST
Moon 8:59 PM CST (8/23) 9:27 AM CST (8/23)
Length of Visible Light 15h 07m
Length of Day
13h 58m
Waning Gibbous, 91% of the Moon is Illuminated
Aug 23
Waning Gibbous
Aug 28
Last Quarter
Sep 5
New
Sep 12
First Quarter
Sep 19
Full

Hourly Weather History & Observations

Time (CST) Temp. Heat Index Dew Point Humidity Pressure Visibility Wind Dir Wind Speed Gust Speed Precip Events Conditions
12:00 AM 64 °F - 53 °F 57%  in - ESE 6.9 mph - -  
12:00 AM 63.9 °F - 52.5 °F 67% - - ESE 6.9 mph - N/A   Unknown
1:00 AM 60.8 °F - 51.4 °F 71% 29.91 in - East 5.8 mph - N/A   Unknown
2:00 AM 58.6 °F - 50.9 °F 75% 29.88 in - ESE 5.8 mph - N/A   Unknown
3:00 AM 60.1 °F - 52.5 °F 76% 29.87 in - ESE 4.6 mph - N/A   Unknown
4:00 AM 59.5 °F - 53.4 °F 80% 29.86 in - ESE 3.5 mph - N/A   Unknown
5:00 AM 58.6 °F - 53.4 °F 83% 29.85 in - ESE 6.9 mph - N/A   Unknown
6:00 AM 60 °F - 55 °F 77% 29.83 in - ESE 4.6 mph - -  
6:00 AM 59.9 °F - 54.7 °F 83% 29.83 in - ESE 4.6 mph - N/A   Unknown
7:00 AM 59.9 °F - 54.9 °F 83% 29.84 in - SSE 2.3 mph - N/A   Unknown
8:00 AM 66.0 °F - 56.7 °F 72% 29.83 in - SE 4.6 mph - N/A   Unknown
9:00 AM 67.8 °F - 57.2 °F 69% 29.83 in - SE 6.9 mph - N/A   Unknown
10:00 AM 71.2 °F - 57.7 °F 62% 29.82 in - SSE 2.3 mph - N/A   Unknown
11:00 AM 75.0 °F - 58.1 °F 56% 29.81 in - SE 5.8 mph - N/A   Unknown
12:00 PM 78 °F - 59 °F 42% 29.79 in - SE 5.8 mph - -  
12:00 PM 78.3 °F - 59.2 °F 52% 29.79 in - SE 5.8 mph - N/A   Unknown
1:00 PM 80.4 °F 81.0 °F 58.8 °F 48% 29.78 in - SE 6.9 mph - N/A   Unknown
2:00 PM 82.0 °F 82.4 °F 59.7 °F 47% 29.76 in - ESE 5.8 mph - N/A   Unknown
3:00 PM 85.8 °F 85.7 °F 60.1 °F 42% 29.74 in - SE 3.5 mph - N/A   Unknown
4:00 PM 90.0 °F 89.7 °F 60.1 °F 37% 29.72 in - WNW 5.8 mph - N/A   Unknown
5:00 PM 88.3 °F 86.5 °F 55.2 °F 32% 29.70 in - East 6.9 mph - N/A   Unknown
6:00 PM 72.7 °F - 60.4 °F 65% 29.74 in - South 15.0 mph 23.0 mph N/A   Unknown
7:00 PM 71.6 °F - 64.8 °F 79% 29.72 in - NE 3.5 mph - 0.02 in   Unknown
8:00 PM 68.4 °F - 62.2 °F 81% 29.70 in - East 5.8 mph - N/A   Unknown
9:00 PM 68.0 °F - 61.7 °F 80% 29.70 in - SE 5.8 mph - N/A   Unknown
10:00 PM 65.5 °F - 60.6 °F 84% 29.71 in - NNW 4.6 mph - N/A   Unknown
11:00 PM 64.2 °F - 60.8 °F 89% 29.70 in - ENE 4.6 mph - N/A   Unknown